This demonstration page uses our WeatherBlox Daily Observations layout. Learn more.

Left ArrowRight Arrow

Hourly Observations for December 20, 2018

Temp ( °F °C ) Dew Point ( °F °C ) Humidity (%) Winds ( mph kmh ) Pressure ( in mb ) Visibility ( mi km ) Precip ( " mm )
12:53 am 00:53 Clear 37 2.8 29 -1.7 73 73 NW 15 24 29.93 1013 10 16 0.00 0.00
1:53 am 01:53 Clear 37 2.8 29 -1.7 73 73 NW 15 24 29.94 1014 10 16 0.00 0.00
2:53 am 02:53 Clear 36 2.2 28 -2.2 73 73 NW 14 22 29.96 1015 10 16 0.00 0.00
3:53 am 03:53 Clear 37 2.8 28 -2.2 70 70 NW 17 28 29.96 1015 10 16 0.00 0.00
4:53 am 04:53 Clear 36 2.2 28 -2.2 73 73 NNW 14 22 29.96 1015 10 16 0.00 0.00
5:53 am 05:53 Clear 35 1.7 28 -2.2 76 76 NW 16 26 29.99 1016 10 16 0.00 0.00
6:53 am 06:53 Clear 36 2.2 28 -2.2 73 73 NW 17 28 30.01 1016 10 16 0.00 0.00
7:53 am 07:53 Clear 36 2.2 27 -2.8 70 70 NNW 23 37 30.02 1017 10 16 0.00 0.00
8:53 am 08:53 Sunny 37 2.8 28 -2.2 70 70 NW 17 28 30.05 1018 10 16 0.00 0.00
9:53 am 09:53 Sunny 40 4.4 29 -1.7 65 65 NW 24 39 30.07 1018 10 16 0.00 0.00
10:53 am 10:53 Sunny 42 5.6 29 -1.7 60 60 NNW 26 43 30.09 1019 10 16 0.00 0.00
11:53 am 11:53 Sunny 45 7.2 28 -2.2 52 52 NNW 31 50 30.08 1019 10 16 0.00 0.00
12:53 pm 12:53 Sunny 46 7.8 28 -2.2 50 50 NNW 30 48 30.05 1018 10 16 0.00 0.00
1:53 pm 13:53 Sunny 48 8.9 28 -2.2 46 46 NNW 31 50 30.05 1018 10 16 0.00 0.00
2:53 pm 14:53 Sunny 48 8.9 28 -2.2 46 46 NNW 26 43 30.05 1018 10 16 0.00 0.00
3:53 pm 15:53 Sunny 48 8.9 29 -1.7 48 48 NNW 17 28 30.06 1018 10 16 0.00 0.00
4:53 pm 16:53 Sunny 44 6.7 28 -2.2 53 53 NNW 14 22 30.07 1018 10 16 0.00 0.00
5:53 pm 17:53 Clear 39 3.9 27 -2.8 62 62 NNW 9 15 30.08 1019 10 16 0.00 0.00
6:53 pm 18:53 Clear 34 1.1 25 -3.9 70 70 WNW 7 11 30.08 1019 10 16 0.00 0.00
7:53 pm 19:53 Clear 32 0 25 -3.9 75 75 NW 9 15 30.07 1018 10 16 0.00 0.00
8:53 pm 20:53 Clear 28 -2.2 23 -5 81 81 WNW 8 13 30.07 1018 10 16 0.00 0.00
9:53 pm 21:53 Clear 31 -0.6 26 -3.3 82 82 NW 9 15 30.05 1018 10 16 0.00 0.00
10:53 pm 22:53 Clear 29 -1.7 24 -4.4 82 82 WNW 8 13 30.03 1017 10 16 0.00 0.00
11:53 pm 23:53 Clear 27 -2.8 23 -5 85 85 WNW 8 13 30.02 1017 10 16 0.00 0.00

Powered by AerisWeather